Time,TemperatureF,DewpointF,PressureIn,WindDirection,WindDirectionDegrees,WindSpeedMPH,WindSpeedGustMPH,Humidity,HourlyPrecipIn,Conditions,Clouds,dailyrainin,SoftwareType,DateUTC
2013-02-16 00:00:00,20.8,19.0,29.97,WSW,246,7.0,-999.0,93,-99.99,,,0.00,weatherlink.com 1.10,2013-02-16 05:00:00,
2013-02-16 00:15:00,20.8,19.0,29.97,WSW,249,8.0,-999.0,93,-99.99,,,0.00,weatherlink.com 1.10,2013-02-16 05:15:00,
2013-02-16 00:30:00,20.4,19.0,29.97,West,273,5.0,-999.0,93,-99.99,,,0.00,weatherlink.com 1.10,2013-02-16 05:30:00,
2013-02-16 00:45:00,20.1,18.0,29.97,WSW,247,6.0,-999.0,93,-99.99,,,0.00,weatherlink.com 1.10,2013-02-16 05:45:00,
2013-02-16 01:00:00,19.7,18.0,29.96,WSW,246,10.0,-999.0,93,-99.99,,,0.00,weatherlink.com 1.10,2013-02-16 06:00:00,
2013-02-16 01:15:00,19.2,18.0,29.96,SW,217,8.0,-999.0,93,-99.99,,,0.00,weatherlink.com 1.10,2013-02-16 06:15:00,
2013-02-16 01:30:00,19.0,17.0,29.96,WSW,246,6.0,-999.0,93,-99.99,,,0.00,weatherlink.com 1.10,2013-02-16 06:30:00,
2013-02-16 01:45:00,18.7,17.0,29.95,West,269,9.0,-999.0,93,-99.99,,,0.00,weatherlink.com 1.10,2013-02-16 06:45:00,
2013-02-16 02:00:00,18.6,17.0,29.95,WNW,286,5.0,-999.0,93,-99.99,,,0.00,weatherlink.com 1.10,2013-02-16 07:00:00,
2013-02-16 02:15:00,18.3,17.0,29.94,WSW,238,6.0,-999.0,93,-99.99,,,0.00,weatherlink.com 1.10,2013-02-16 07:15:00,
2013-02-16 02:30:00,18.2,17.0,29.94,WSW,244,8.0,-999.0,93,-99.99,,,0.00,weatherlink.com 1.10,2013-02-16 07:30:00,
2013-02-16 02:45:00,18.1,16.0,29.94,WSW,254,5.0,-999.0,93,-99.99,,,0.00,weatherlink.com 1.10,2013-02-16 07:45:00,
2013-02-16 03:00:00,17.9,16.0,29.93,SW,234,8.0,-999.0,93,-99.99,,,0.00,weatherlink.com 1.10,2013-02-16 08:00:00,
2013-02-16 03:15:00,17.7,16.0,29.93,WSW,249,8.0,-999.0,93,-99.99,,,0.00,weatherlink.com 1.10,2013-02-16 08:15:00,
2013-02-16 03:30:00,17.6,16.0,29.93,West,279,1.0,-999.0,93,-99.99,,,0.00,weatherlink.com 1.10,2013-02-16 08:30:00,
2013-02-16 03:45:00,17.6,16.0,29.93,West,274,11.0,-999.0,93,-99.99,,,0.00,weatherlink.com 1.10,2013-02-16 08:45:00,
2013-02-16 04:00:00,17.6,16.0,29.93,WNW,290,2.0,-999.0,93,-99.99,,,0.00,weatherlink.com 1.10,2013-02-16 09:00:00,
2013-02-16 04:15:00,17.3,16.0,29.93,WSW,255,3.0,-999.0,93,-99.99,,,0.00,weatherlink.com 1.10,2013-02-16 09:15:00,
2013-02-16 04:31:00,17.1,16.0,29.93,West,264,6.0,-999.0,93,-99.99,,,0.00,weatherlink.com 1.10,2013-02-16 09:31:00,
2013-02-16 04:46:00,17.0,15.0,29.93,WSW,257,2.0,-999.0,93,-99.99,,,0.00,weatherlink.com 1.10,2013-02-16 09:46:00,
2013-02-16 05:00:00,16.9,15.0,29.93,West,271,8.0,-999.0,93,-99.99,,,0.00,weatherlink.com 1.10,2013-02-16 10:00:00,
2013-02-16 05:15:00,16.9,15.0,29.93,WSW,257,8.0,-999.0,93,-99.99,,,0.00,weatherlink.com 1.10,2013-02-16 10:15:00,
2013-02-16 05:30:00,16.9,15.0,29.93,WSW,250,6.0,-999.0,93,-99.99,,,0.00,weatherlink.com 1.10,2013-02-16 10:30:00,
2013-02-16 05:45:00,16.7,15.0,29.93,WSW,258,5.0,-999.0,93,-99.99,,,0.00,weatherlink.com 1.10,2013-02-16 10:45:00,
2013-02-16 06:00:00,16.7,15.0,29.93,West,262,5.0,-999.0,93,-99.99,,,0.00,weatherlink.com 1.10,2013-02-16 11:00:00,
2013-02-16 06:16:00,16.9,15.0,29.93,WSW,256,2.0,-999.0,93,-99.99,,,0.00,weatherlink.com 1.10,2013-02-16 11:16:00,
2013-02-16 06:31:00,16.8,15.0,29.93,SW,229,5.0,-999.0,93,-99.99,,,0.00,weatherlink.com 1.10,2013-02-16 11:31:00,
2013-02-16 06:45:00,16.9,15.0,29.92,WSW,246,4.0,-999.0,93,-99.99,,,0.00,weatherlink.com 1.10,2013-02-16 11:45:00,
2013-02-16 07:00:00,16.8,15.0,29.93,SSW,211,6.0,-999.0,93,-99.99,,,0.00,weatherlink.com 1.10,2013-02-16 12:00:00,
2013-02-16 07:15:00,16.4,15.0,29.93,West,280,5.0,-999.0,93,-99.99,,,0.00,weatherlink.com 1.10,2013-02-16 12:15:00,
2013-02-16 07:31:00,16.0,14.0,29.93,WSW,245,5.0,-999.0,93,-99.99,,,0.00,weatherlink.com 1.10,2013-02-16 12:31:00,
2013-02-16 07:46:00,15.7,14.0,29.93,WSW,254,5.0,-999.0,93,-99.99,,,0.00,weatherlink.com 1.10,2013-02-16 12:46:00,
2013-02-16 08:01:00,15.6,14.0,29.93,WSW,249,5.0,-999.0,93,-99.99,,,0.00,weatherlink.com 1.10,2013-02-16 13:01:00,
2013-02-16 08:31:00,15.2,14.0,29.93,WNW,291,4.0,-999.0,93,-99.99,,,0.00,weatherlink.com 1.10,2013-02-16 13:31:00,
2013-02-16 08:46:00,16.3,15.0,29.93,WSW,251,0.0,-999.0,93,-99.99,,,0.00,weatherlink.com 1.10,2013-02-16 13:46:00,
2013-02-16 09:01:00,15.0,13.0,29.93,West,270,8.0,-999.0,93,-99.99,,,0.00,weatherlink.com 1.10,2013-02-16 14:01:00,
2013-02-16 09:16:00,15.0,13.0,29.93,West,259,0.0,-999.0,93,-99.99,,,0.00,weatherlink.com 1.10,2013-02-16 14:16:00,
2013-02-16 09:31:00,15.1,14.0,29.94,West,269,1.0,-999.0,93,-99.99,,,0.00,weatherlink.com 1.10,2013-02-16 14:31:00,
2013-02-16 09:46:00,15.0,13.0,29.93,WSW,251,7.0,-999.0,93,-99.99,,,0.00,weatherlink.com 1.10,2013-02-16 14:46:00,
2013-02-16 10:01:00,14.9,13.0,29.93,West,271,2.0,-999.0,93,-99.99,,,0.00,weatherlink.com 1.10,2013-02-16 15:01:00,
2013-02-16 10:16:00,15.0,13.0,29.93,SW,226,2.0,-999.0,93,-99.99,,,0.00,weatherlink.com 1.10,2013-02-16 15:16:00,
2013-02-16 10:31:00,15.3,14.0,29.94,WSW,239,4.0,-999.0,93,-99.99,,,0.00,weatherlink.com 1.10,2013-02-16 15:31:00,
2013-02-16 10:46:00,15.5,14.0,29.93,WSW,250,0.0,-999.0,93,-99.99,,,0.00,weatherlink.com 1.10,2013-02-16 15:46:00,
2013-02-16 11:01:00,15.8,14.0,29.93,West,277,2.0,-999.0,93,-99.99,,,0.00,weatherlink.com 1.10,2013-02-16 16:01:00,
2013-02-16 11:16:00,16.1,15.0,29.93,WNW,298,2.0,-999.0,93,-99.99,,,0.00,weatherlink.com 1.10,2013-02-16 16:16:00,
2013-02-16 11:31:00,16.2,15.0,29.92,SW,229,3.0,-999.0,93,-99.99,,,0.00,weatherlink.com 1.10,2013-02-16 16:31:00,
2013-02-16 11:46:00,16.1,15.0,29.92,NW,315,0.0,-999.0,93,-99.99,,,0.00,weatherlink.com 1.10,2013-02-16 16:46:00,
2013-02-16 12:01:00,16.2,15.0,29.92,WNW,284,6.0,-999.0,93,-99.99,,,0.00,weatherlink.com 1.10,2013-02-16 17:01:00,
2013-02-16 12:16:00,16.2,15.0,29.93,WSW,238,8.0,-999.0,93,-99.99,,,0.00,weatherlink.com 1.10,2013-02-16 17:16:00,
2013-02-16 12:31:00,15.7,14.0,29.92,West,275,9.0,-999.0,93,-99.99,,,0.00,weatherlink.com 1.10,2013-02-16 17:31:00,
2013-02-16 12:46:00,15.7,14.0,29.91,West,280,1.0,-999.0,93,-99.99,,,0.00,weatherlink.com 1.10,2013-02-16 17:46:00,
2013-02-16 13:01:00,15.5,14.0,29.91,WSW,242,6.0,-999.0,93,-99.99,,,0.00,weatherlink.com 1.10,2013-02-16 18:01:00,
2013-02-16 13:16:00,15.0,13.0,29.91,WSW,254,0.0,-999.0,93,-99.99,,,0.00,weatherlink.com 1.10,2013-02-16 18:16:00,
2013-02-16 13:31:00,15.1,14.0,29.89,West,272,5.0,-999.0,93,-99.99,,,0.00,weatherlink.com 1.10,2013-02-16 18:31:00,
2013-02-16 13:46:00,14.8,13.0,29.91,SW,217,5.0,-999.0,93,-99.99,,,0.00,weatherlink.com 1.10,2013-02-16 18:46:00,
2013-02-16 14:01:00,14.8,13.0,29.90,WNW,302,5.0,-999.0,93,-99.99,,,0.00,weatherlink.com 1.10,2013-02-16 19:01:00,
2013-02-16 14:16:00,14.8,13.0,29.91,WNW,295,1.0,-999.0,93,-99.99,,,0.00,weatherlink.com 1.10,2013-02-16 19:16:00,
2013-02-16 14:31:00,14.4,13.0,29.91,West,261,4.0,-999.0,93,-99.99,,,0.00,weatherlink.com 1.10,2013-02-16 19:31:00,
2013-02-16 14:46:00,13.7,12.0,29.90,NW,325,2.0,-999.0,93,-99.99,,,0.00,weatherlink.com 1.10,2013-02-16 19:46:00,
2013-02-16 15:01:00,13.5,12.0,29.92,West,260,7.0,-999.0,93,-99.99,,,0.00,weatherlink.com 1.10,2013-02-16 20:01:00,
2013-02-16 15:17:00,13.5,12.0,29.91,WSW,252,8.0,-999.0,93,-99.99,,,0.00,weatherlink.com 1.10,2013-02-16 20:17:00,
2013-02-16 15:31:00,13.4,12.0,29.92,WNW,302,3.0,-999.0,93,-99.99,,,0.00,weatherlink.com 1.10,2013-02-16 20:31:00,
2013-02-16 15:46:00,13.5,12.0,29.91,SW,231,5.0,-999.0,93,-99.99,,,0.00,weatherlink.com 1.10,2013-02-16 20:46:00,
2013-02-16 16:02:00,14.0,12.0,29.91,SW,228,14.0,-999.0,93,-99.99,,,0.00,weatherlink.com 1.10,2013-02-16 21:02:00,
2013-02-16 16:19:00,13.1,12.0,29.93,SW,230,9.0,-999.0,93,-99.99,,,0.00,weatherlink.com 1.10,2013-02-16 21:19:00,
2013-02-16 16:31:00,12.7,11.0,29.91,WSW,248,9.0,-999.0,93,-99.99,,,0.00,weatherlink.com 1.10,2013-02-16 21:31:00,
2013-02-16 16:47:00,12.9,11.0,29.92,WSW,250,10.0,-999.0,93,-99.99,,,0.00,weatherlink.com 1.10,2013-02-16 21:47:00,
2013-02-16 17:01:00,14.0,12.0,29.92,WSW,238,10.0,-999.0,93,-99.99,,,0.00,weatherlink.com 1.10,2013-02-16 22:01:00,
2013-02-16 17:17:00,13.4,12.0,29.92,WSW,246,1.0,-999.0,93,-99.99,,,0.00,weatherlink.com 1.10,2013-02-16 22:17:00,
2013-02-16 17:32:00,13.0,11.0,29.92,WNW,298,5.0,-999.0,93,-99.99,,,0.00,weatherlink.com 1.10,2013-02-16 22:32:00,
2013-02-16 17:47:00,12.9,11.0,29.92,WNW,295,5.0,-999.0,93,-99.99,,,0.00,weatherlink.com 1.10,2013-02-16 22:47:00,
2013-02-16 18:02:00,12.0,10.0,29.92,SW,221,7.0,-999.0,92,-99.99,,,0.00,weatherlink.com 1.10,2013-02-16 23:02:00,
2013-02-16 18:17:00,11.6,10.0,29.92,SW,230,6.0,-999.0,92,-99.99,,,0.00,weatherlink.com 1.10,2013-02-16 23:17:00,
2013-02-16 18:32:00,11.9,10.0,29.92,WSW,254,9.0,-999.0,93,-99.99,,,0.00,weatherlink.com 1.10,2013-02-16 23:32:00,
2013-02-16 18:47:00,11.2,9.0,29.93,WNW,288,12.0,-999.0,92,-99.99,,,0.00,weatherlink.com 1.10,2013-02-16 23:47:00,
2013-02-16 19:02:00,10.8,9.0,29.93,WSW,247,9.0,-999.0,92,-99.99,,,0.00,weatherlink.com 1.10,2013-02-17 00:02:00,
2013-02-16 19:17:00,10.8,9.0,29.93,WSW,240,8.0,-999.0,92,-99.99,,,0.00,weatherlink.com 1.10,2013-02-17 00:17:00,
2013-02-16 19:32:00,10.9,9.0,29.93,SW,218,10.0,-999.0,92,-99.99,,,0.00,weatherlink.com 1.10,2013-02-17 00:32:00,
2013-02-16 19:47:00,11.0,9.0,29.92,West,266,8.0,-999.0,92,-99.99,,,0.00,weatherlink.com 1.10,2013-02-17 00:47:00,
2013-02-16 20:03:00,11.2,9.0,29.92,West,271,8.0,-999.0,92,-99.99,,,0.00,weatherlink.com 1.10,2013-02-17 01:03:00,
2013-02-16 20:17:00,11.4,10.0,29.92,WNW,290,9.0,-999.0,92,-99.99,,,0.00,weatherlink.com 1.10,2013-02-17 01:17:00,
2013-02-16 20:33:00,11.2,9.0,29.92,SW,234,2.0,-999.0,92,-99.99,,,0.00,weatherlink.com 1.10,2013-02-17 01:33:00,
2013-02-16 20:48:00,11.0,9.0,29.92,WNW,296,15.0,-999.0,92,-99.99,,,0.00,weatherlink.com 1.10,2013-02-17 01:48:00,
2013-02-16 21:03:00,11.1,9.0,29.92,WSW,255,6.0,-999.0,92,-99.99,,,0.00,weatherlink.com 1.10,2013-02-17 02:03:00,
2013-02-16 21:18:00,11.0,9.0,29.92,WSW,252,11.0,-999.0,92,-99.99,,,0.00,weatherlink.com 1.10,2013-02-17 02:18:00,
2013-02-16 21:33:00,10.9,9.0,29.92,WSW,241,15.0,-999.0,92,-99.99,,,0.00,weatherlink.com 1.10,2013-02-17 02:33:00,
2013-02-16 21:48:00,10.7,9.0,29.91,SW,233,13.0,-999.0,92,-99.99,,,0.00,weatherlink.com 1.10,2013-02-17 02:48:00,
2013-02-16 22:18:00,10.0,8.0,29.92,SW,233,7.0,-999.0,92,-99.99,,,0.00,weatherlink.com 1.10,2013-02-17 03:18:00,
2013-02-16 22:33:00,9.9,8.0,29.92,SW,234,10.0,-999.0,92,-99.99,,,0.00,weatherlink.com 1.10,2013-02-17 03:33:00,
2013-02-16 22:49:00,10.0,8.0,29.92,West,274,6.0,-999.0,92,-99.99,,,0.00,weatherlink.com 1.10,2013-02-17 03:49:00,
2013-02-16 23:04:00,10.3,9.0,29.91,SW,235,9.0,-999.0,92,-99.99,,,0.00,weatherlink.com 1.10,2013-02-17 04:04:00,
2013-02-16 23:18:00,10.5,9.0,29.91,West,273,8.0,-999.0,92,-99.99,,,0.00,weatherlink.com 1.10,2013-02-17 04:18:00,
2013-02-16 23:33:00,10.0,8.0,29.91,WSW,248,20.0,-999.0,92,-99.99,,,0.00,weatherlink.com 1.10,2013-02-17 04:33:00,